www.pogodaiklimat.ru

ПОГОДА в Оленеке

АРХИВ ПОГОДЫ в Оленеке

Время (UTC), дата Ветер
(напр.,м/с)
 
Видим.   Явления Облачность Т
(С)
Тd
(С)
f
(%)
Тe
(С)
Тes
(С)
Комфортность P
(гПа)
Po
(гПа)
Тmin
(С)
Tmax
(С)
R
(мм)
S
(см)
03 10.01 З 4 20 км ясно -25.3 -29.1 70 -35 -35 опасность
обморожения
1030.7 1000.0 -25.3
06 10.01 З 3 20 км ясно -23.9 -28.6 65 -32 -32 опасность
обморожения
1031.2 1000.7
09 10.01 З 3 20 км ясно -25.9 -29.8 70 -35 -35 опасность
обморожения
1033.0 1002.2
12 10.01 СЗ 3 20 км ясно -27.7 -31.5 70 -37 -37 опасность
обморожения
1033.8 1002.8 -23.4
15 10.01 З 2 н/о н/о -29.8 -33.3 71 -37 -37 опасность
обморожения
1034.1 1002.8
18 10.01 З 3 н/о н/о -29.7 -33.2 71 -39 -39 опасность
обморожения
1034.6 1003.3
21 10.01 штиль 0 н/о н/о -30.0 -33.2 74 -30 -30 1035.0 1003.6
00 11.01 штиль 0 20 км 3/0
[Ci fib]
-31.5 -35.2 70 -32 -32 опасность
обморожения
1035.9 1004.3 -31.8 30
03 11.01 штиль 0 20 км ясно -30.3 -34.1 69 -30 -30 1036.0 1004.5 -34.5
06 11.01 штиль 0 20 км ясно -34.8 -38.4 70 -35 -35 опасность
обморожения
1037.1 1005.0
09 11.01 штиль 0 20 км ясно -34.1 -37.8 69 -34 -34 опасность
обморожения
1038.3 1006.3
12 11.01 З 2 н/о н/о -36.8 -40.6 68 -45 -45 опасность
обморожения
1039.5 1007.1 -29.9
15 11.01 штиль 0 н/о н/о -38.5 -42.4 66 -39 -39 опасность
обморожения
1040.3 1007.7
18 11.01 В 1 н/о н/о -39.8 -43.8 65 -45 -45 опасность
обморожения
1041.2 1008.3
21 11.01 штиль 0 н/о н/о -39.2 -43.2 66 -39 -39 опасность
обморожения
1041.8 1009.0
00 12.01 З 1 20 км ясно -41.9 -46.1 63 -47 -47 опасность
обморожения
1042.9 1009.7 -41.9 30
03 12.01 З 1 20 км ясно -42.1 -46.1 65 -48 -48 опасность
обморожения
1043.3 1010.0 -42.4
06 12.01 З 2 20 км ясно -42.4 -46.1 67 -52 -52 опасность
обморожения
1043.4 1010.1
09 12.01 СЗ 2 20 км ясно -42.3 -46.1 66 -52 -52 опасность
обморожения
1044.1 1010.8
12 12.01 СЗ 2 н/о н/о -44.3 -48.5 63 -54 -54 опасность
обморожения
1044.7 1011.1 -41.2
15 12.01 З 1 н/о н/о -43.2 -47.4 63 -49 -49 опасность
обморожения
1044.7 1011.2
18 12.01 штиль 0 н/о н/о -43.8 -48.0 63 -44 -44 опасность
обморожения
1045.6 1012.0
21 12.01 З 2 н/о н/о -43.7 -47.9 63 -53 -53 опасность
обморожения
1045.4 1011.8
00 13.01 СЗ 2 4000 м дымка ясно -44.6 -48.9 62 -54 -54 опасность
обморожения
1045.3 1011.7 -45.0 30
03 13.01 З 2 20 км ясно -44.5 -48.9 61 -54 -54 опасность
обморожения
1045.7 1012.0
06 13.01 З 1 50 км ясно -44.6 -48.9 62 -50 -50 опасность
обморожения
1045.6 1011.9
09 13.01 СЗ 1 20 км ясно -44.5 -48.9 61 -50 -50 опасность
обморожения
1046.1 1012.4
12 13.01 штиль 0 н/о н/о -43.7 -48.0 62 -44 -44 опасность
обморожения
1045.8 1012.2 -43.7
15 13.01 штиль 0 н/о н/о -44.9 -49.2 62 -45 -45 опасность
обморожения
1046.2 1012.5
18 13.01 штиль 0 н/о н/о -44.4 -48.7 62 -44 -44 опасность
обморожения
1046.3 1012.6
21 13.01 штиль 0 н/о н/о -44.5 -48.8 62 -45 -45 опасность
обморожения
1046.9 1013.2
00 14.01 штиль 0 н/о н/о -43.5 -47.7 63 -44 -44 опасность
обморожения
1046.8 1013.3 -45.1
03 14.01 штиль 0 н/о н/о -44.6 -48.9 62 -45 -45 опасность
обморожения
1047.7 1013.9
06 14.01 штиль 0 н/о н/о -44.2 -48.4 63 -44 -44 опасность
обморожения
1048.0 1014.3
09 14.01 З 1 н/о н/о -44.3 -48.6 62 -50 -50 опасность
обморожения
1048.7 1015.0
12 14.01 штиль 0 н/о н/о -43.7 -48.0 62 -44 -44 опасность
обморожения
1049.2 1015.5 -43.1
15 14.01 З 3 н/о н/о -44.5 -48.8 62 -57 -57 опасность
обморожения
1049.3 1015.6
18 14.01 З 2 н/о н/о -43.9 -48.2 62 -54 -54 опасность
обморожения
1049.5 1015.8
21 14.01 З 2 н/о н/о -44.1 -48.4 62 -54 -54 опасность
обморожения
1049.4 1015.7
00 15.01 СЗ 2 н/о н/о -44.3 -48.7 61 -54 -54 опасность
обморожения
1049.1 1015.3 -44.8
03 15.01 З 2 н/о н/о -44.0 -48.3 62 -54 -54 опасность
обморожения
1048.9 1015.2
12 15.01 СЗ 1 н/о н/о -44.2 -48.5 62 -50 -50 опасность
обморожения
1048.3 1014.6
15 15.01 З 1 н/о н/о -43.6 -47.9 62 -49 -49 опасность
обморожения
1047.2 1013.6
18 15.01 З 2 н/о н/о -43.9 -48.3 61 -54 -54 опасность
обморожения
1046.5 1012.9
21 15.01 СЗ 1 н/о н/о -43.9 -48.2 62 -50 -50 опасность
обморожения
1046.0 1012.4
00 16.01 З 2 20 км ясно -44.7 -49.7 57 -55 -55 опасность
обморожения
1045.3 1011.6 -45.0 30
03 16.01 СЗ 1 20 км ясно -44.1 -48.9 59 -50 -50 опасность
обморожения
1044.3 1010.8
06 16.01 СЗ 2 50 км ясно -44.5 -48.9 61 -54 -54 опасность
обморожения
1043.2 1009.6
09 16.01 З 1 20 км 3/0
[Ci fib]
-43.9 -48.2 62 -50 -50 опасность
обморожения
1042.8 1009.3
12 16.01 З 2 н/о н/о -44.0 -48.3 62 -54 -54 опасность
обморожения
1041.7 1008.2 -43.3
15 16.01 З 1 н/о н/о -44.7 -49.1 61 -50 -50 опасность
обморожения
1040.8 1007.2
18 16.01 З 2 н/о н/о -44.1 -48.4 62 -54 -54 опасность
обморожения
1039.5 1006.1
21 16.01 З 2 н/о н/о -43.8 -48.1 62 -54 -54 опасность
обморожения
1038.6 1005.2
00 17.01 З 1 20 км 3/0
[Ci fib]
-43.0 -47.5 61 -49 -49 опасность
обморожения
1037.6 1004.4 -44.8 30
03 17.01 З 3 20 км 6/0
[Ci fib]
-42.2 -46.9 60 -54 -54 опасность
обморожения
1036.5 1003.4
06 17.01 З 2 50 км 6/0
[Ci fib]
-40.7 -44.5 67 -50 -50 опасность
обморожения
1025.1 1002.3

 

Местоположение метеостанции Оленек (Якутия, Россия): широта 68.50 долгота 112.40 высота над уровнем моря 220 м.

В архиве по умолчанию представлена погода в Оленеке за последнюю неделю. Архивные данные за месяц целиком и за предыдущие месяцы, начиная с января 2011 года, Вы можете получить, выбрав интересующий диапазон дат из раскрывающегося списка и нажав кнопку "Ввод!".

Внимание! Время в таблицах - всемирное. Для получения местного времени необходимо прибавить поправку, которая в Оленеке равна 9 ч.

Ветер - указаны скорость ветра в м/с - средняя за 10 мин, порывы в срок и между сроками (в фигурных скобках) и направление, откуда дует ветер: С - северный, СВ - северо-восточный, В - восточный, ЮВ - юго-восточный, Ю - южный, ЮЗ - юго-западный, З - западный, СЗ - северо-западный.
Видимость - горизонтальная дальность видимости в метрах или километрах. При видимости от 1 до 10 км при отсутствии осадков обычно наблюдается дымка, при ухудшении видимости до 1 км и менее - туман. В сухую погоду видимость может ухудшаться дымом, пылью или мглою.
Явления - указаны атмосферные явления, наблюдавшиеся в срок или в последний час перед сроком; фигурными скобками обозначены явления, наблюдавшиеся между сроками (за 1-3 часа до срока); квадратными скобками обозначены град или гололедные отложения с указанием их диаметра в мм.
Облачность - указаны через наклонную черту общая и нижняя облачность в баллах и высота нижней границы облаков в метрах; квадратными скобками обозначены формы облаков: Ci - перистые, Cs - перисто-слоистые, Cc - перисто-кучевые, Ac - высококучевые, As - высокослоистые, Sc - слоисто-кучевые, Ns - слоисто-дождевые, Cu - кучевые, Cb - кучево-дождевые. Подробнее классификацию облаков см. в Атласе облаков (PDF).
T - Температура воздуха - температура, измеренная на высоте 2 м над землей.
Td - Температура точки росы - температура, при понижении до которой содержащийся в воздухе водяной пар достигнет насыщения.
f - Относительная влажность воздуха - влажноcть воздуха, измеренная на высоте 2 м над землей.
Te - Эффективная температура - температура, которую ощущает одетый по сезону человек в тени. Характеристика душности погоды. При расчете учитывается влияние влажности воздуха и скорости ветра на теплоощущения человека.
Tes - Эффективная температура на солнце - температура, которую ощущает человек, с поправкой на солнечный нагрев. Характеристика знойности погоды. Зависит от высоты солнца над горизонтом, облачности и скорости ветра. Ночью, в пасмурную погоду, а также при ветре 12 м/с и более поправка равна нулю.
P - Атмосферное давление - приведенное к уровню моря атмосферное давление.
Po - Атмосферное давление - измеренное на уровне метеостанции атмосферное давление.
Tmin - Минимальная температура - минимум температуры воздуха на высоте 2 м над землей.
Tmax - Максимальная температура - максимум температуры воздуха на высоте 2 м над землей.
R - Количество осадков - Количество выпавших осадков, мм. При наведении курсора мыши на число - период времени, за который выпало указанное количество осадков.
S - Снежный покров - Высота снежного покрова, см. При наведении курсора мыши на число - состояние снежного покрова и степень покрытия местности в баллах.